H1 CPF 1 NER 2013 1 14 9 5141 glonass114 H2 0806703 9114 33468 2013 1 14 0 0 0 2013 1 17 23 45 0 900 1 1 0 0 0 H9 10 0 56306 0.00000 0 -10051857.348 21693911.550 -8862682.365 10 0 56306 900.00000 0 -10459097.094 22511231.914 -5833456.497 10 0 56306 1800.00000 0 -10620210.848 23024369.524 -2690778.339 10 0 56306 2700.00000 0 -10575189.193 23195778.012 504235.467 10 0 56306 3600.00000 0 -10371374.030 22998851.239 3689440.620 10 0 56306 4500.00000 0 -10061222.292 22419148.047 6802880.562 10 0 56306 5400.00000 0 -9699862.478 21455122.808 9783998.418 10 0 56306 6300.00000 0 -9342548.522 20118330.107 12574821.055 10 0 56306 7200.00000 0 -9042119.782 18433094.436 15121091.374 10 0 56306 8100.00000 0 -8846575.607 16435658.412 17373326.306 10 0 56306 9000.00000 0 -8796867.793 14172845.000 19287779.630 10 0 56306 9900.00000 0 -8925004.782 11700289.745 20827290.829 10 0 56306 10800.00000 0 -9252548.006 9080316.857 21962003.782 10 0 56306 11700.00000 0 -9789563.995 6379547.684 22669941.787 10 0 56306 12600.00000 0 -10534076.464 3666341.130 22937428.361 10 0 56306 13500.00000 0 -11472041.464 1008172.145 22759346.332 10 0 56306 14400.00000 0 -12577846.653 -1530943.291 22139230.853 10 0 56306 15300.00000 0 -13815313.776 -3892870.419 21089195.073 10 0 56306 16200.00000 0 -15139162.373 -6027525.616 19629690.314 10 0 56306 17100.00000 0 -16496873.512 -7894705.044 17789105.619 10 0 56306 18000.00000 0 -17830875.573 -9465497.307 15603214.500 10 0 56306 18900.00000 0 -19080960.664 -10723222.859 13114479.548 10 0 56306 19800.00000 0 -20186830.546 -11663862.564 10371228.173 10 0 56306 20700.00000 0 -21090665.413 -12295959.010 7426715.312 10 0 56306 21600.00000 0 -21739607.814 -12639996.268 4338091.094 10 0 56306 22500.00000 0 -22088057.454 -12727285.415 1165293.257 10 0 56306 23400.00000 0 -22099680.376 -12598403.861 -2030114.134 10 0 56306 24300.00000 0 -21749047.948 -12301255.086 -5186133.244 10 0 56306 25200.00000 0 -21022836.469 -11888831.328 -8241533.167 10 0 56306 26100.00000 0 -19920536.597 -11416774.061 -11137035.388 10 0 56306 27000.00000 0 -18454642.288 -10940835.531 -13816461.103 10 0 56306 27900.00000 0 -16650310.576 -10514348.676 -16227818.288 10 0 56306 28800.00000 0 -14544505.699 -10185812.215 -18324307.578 10 0 56306 29700.00000 0 -12184662.398 -9996692.823 -20065227.811 10 0 56306 30600.00000 0 -9626923.170 -9979537.078 -21416764.053 10 0 56306 31500.00000 0 -6934021.919 -10156472.885 -22352643.143 10 0 56306 32400.00000 0 -4172900.984 -10538163.733 -22854644.418 10 0 56306 33300.00000 0 -1412159.476 -11123260.319 -22912955.890 10 0 56306 34200.00000 0 1280562.028 -11898373.239 -22526368.953 10 0 56306 35100.00000 0 3841152.843 -12838568.813 -21702307.668 10 0 56306 36000.00000 0 6211453.672 -13908368.171 -20456691.585 10 0 56306 36900.00000 0 8341428.312 -15063208.692 -18813634.160 10 0 56306 37800.00000 0 10190995.885 -16251307.305 -16804981.879 10 0 56306 38700.00000 0 11731447.883 -17415848.184 -14469702.169 10 0 56306 39600.00000 0 12946391.307 -18497403.316 -11853131.311 10 0 56306 40500.00000 0 13832179.024 -19436484.297 -9006096.359 10 0 56306 41400.00000 0 14397809.902 -20176117.775 -5983927.696 10 0 56306 42300.00000 0 14664303.460 -20664335.520 -2845381.482 10 0 56306 43200.00000 0 14663576.204 -20856473.386 348506.893 10 0 56306 44100.00000 0 14436867.851 -20717181.242 3535615.559 10 0 56306 45000.00000 0 14032784.852 -20222058.044 6653951.076 10 0 56306 45900.00000 0 13505044.990 -19358842.025 9642861.097 10 0 56306 46800.00000 0 12910019.470 -18128104.846 12444220.316 10 0 56306 47700.00000 0 12304177.486 -16543419.653 15003565.808 10 0 56306 48600.00000 0 11741542.257 -14630995.279 17271159.125 10 0 56306 49500.00000 0 11271266.769 -12428791.427 19202954.224 10 0 56306 50400.00000 0 10935432.125 -9985151.559 20761452.276 10 0 56306 51300.00000 0 10767161.712 -7357010.414 21916427.049 10 0 56306 52200.00000 0 10789130.716 -4607750.678 22645507.240 10 0 56306 53100.00000 0 11012533.649 -1804797.945 22934604.991 10 0 56306 54000.00000 0 11436553.090 982946.363 22778183.031 10 0 56306 54900.00000 0 12048351.643 3687727.968 22179355.846 10 0 56306 55800.00000 0 12823587.180 6245510.249 21149823.505 10 0 56306 56700.00000 0 13727429.442 8598386.490 19709639.811 10 0 56306 57600.00000 0 14716035.161 10696734.758 17886819.496 10 0 56306 58500.00000 0 15738419.652 12501027.004 15716792.168 10 0 56306 59400.00000 0 16738646.267 13983218.510 13241713.502 10 0 56306 60300.00000 0 17658241.767 15127661.236 10509646.867 10 0 56306 61200.00000 0 18438736.131 15931504.330 7573631.076 10 0 56306 62100.00000 0 19024220.031 16404566.536 4490652.179 10 0 56306 63000.00000 0 19363812.382 16568687.162 1320539.028 10 0 56306 63900.00000 0 19413934.013 16456584.023 -1875195.922 10 0 56306 64800.00000 0 19140291.556 16110267.386 -5034548.186 10 0 56306 65700.00000 0 18519487.751 15579077.477 -8096222.072 10 0 56306 66600.00000 0 17540189.952 14917428.780 -11000817.388 10 0 56306 67500.00000 0 16203807.089 14182356.580 -13691979.119 10 0 56306 68400.00000 0 14524645.850 13430969.320 -16117487.894 10 0 56306 69300.00000 0 12529538.633 12717914.204 -18230270.260 10 0 56306 70200.00000 0 10256957.719 12092962.730 -19989309.511 10 0 56306 71100.00000 0 7755651.468 11598817.692 -21360439.797 10 0 56306 72000.00000 0 5082858.190 11269233.869 -22317008.423 10 0 56306 72900.00000 0 2302170.788 11127531.393 -22840393.860 10 0 56306 73800.00000 0 -518860.394 11185564.432 -22920369.605 10 0 56306 74700.00000 0 -3311287.994 11443188.755 -22555306.853 10 0 56306 75600.00000 0 -6007386.197 11888251.040 -21752211.843 10 0 56306 76500.00000 0 -8543219.713 12497100.916 -20526596.748 10 0 56306 77400.00000 0 -10861057.157 13235604.926 -18902185.992 10 0 56306 78300.00000 0 -12911529.241 14060620.451 -16910462.959 10 0 56306 79200.00000 0 -14655442.458 14921868.235 -14590065.046 10 0 56306 80100.00000 0 -16065172.975 15764125.076 -11986038.110 10 0 56306 81000.00000 0 -17125582.947 16529644.535 -9148964.165 10 0 56306 81900.00000 0 -17834421.273 17160703.468 -6133978.848 10 0 56306 82800.00000 0 -18202192.392 17602166.511 -2999697.781 10 0 56306 83700.00000 0 -18251499.227 17803959.533 192927.153 10 0 56306 84600.00000 0 -18015888.660 17723346.646 3381798.870 10 0 56306 85500.00000 0 -17538249.009 17326913.499 6504889.510 10 0 56307 0.00000 0 -16868828.141 16592172.014 9501453.729 10 0 56307 900.00000 0 -16062956.946 15508717.244 12313216.756 10 0 56307 1800.00000 0 -15178575.131 14078887.783 14885512.389 10 0 56307 2700.00000 0 -14273665.265 12317899.022 17168349.355 10 0 56307 3600.00000 0 -13403703.464 10253444.822 19117384.230 10 0 56307 4500.00000 0 -12619235.333 7924782.474 20694782.119 10 0 56307 5400.00000 0 -11963679.347 5381339.243 21869948.664 10 0 56307 6300.00000 0 -11471450.223 2680898.102 22620119.596 10 0 56307 7200.00000 0 -11166480.989 -112561.989 22930796.938 10 0 56307 8100.00000 0 -11061205.425 -2931281.858 22796024.123 10 0 56307 9000.00000 0 -11156043.046 -5706294.025 22218495.311 10 0 56307 9900.00000 0 -11439407.594 -8370044.444 21209497.332 10 0 56307 10800.00000 0 -11888238.081 -10858956.063 19788685.821 10 0 56307 11700.00000 0 -12469029.471 -13115828.615 17983700.080 10 0 56307 12600.00000 0 -13139319.264 -15091975.950 15829624.245 10 0 56307 13500.00000 0 -13849567.141 -16749013.172 13368305.125 10 0 56307 14400.00000 0 -14545348.396 -18060220.425 10647539.762 10 0 56307 15300.00000 0 -15169768.672 -19011427.664 7720148.307 10 0 56307 16200.00000 0 -15665998.242 -19601384.733 4642950.014 10 0 56307 17100.00000 0 -15979818.936 -19841602.503 1475662.002 10 0 56307 18000.00000 0 -16062076.252 -19755672.796 -1720257.823 10 0 56307 18900.00000 0 -15870933.056 -19378096.658 -4882801.301 10 0 56307 19800.00000 0 -15373829.570 -18752671.016 -7950610.959 10 0 56307 20700.00000 0 -14549066.608 -17930502.192 -10864167.926 10 0 56307 21600.00000 0 -13386944.797 -16967730.294 -13566943.906 10 0 56307 22500.00000 0 -11890411.054 -15923060.432 -16006494.987 10 0 56307 23400.00000 0 -10075184.202 -14855204.733 -18135476.219 10 0 56307 24300.00000 0 -7969353.320 -13820342.592 -19912557.639 10 0 56307 25200.00000 0 -5612464.237 -12869705.738 -21303224.364 10 0 56307 26100.00000 0 -3054131.015 -12047389.331 -22280445.566 10 0 56307 27000.00000 0 -352228.753 -11388480.730 -22825199.713 10 0 56307 27900.00000 0 2429258.540 -10917584.290 -22926846.123 10 0 56307 28800.00000 0 5222646.854 -10647804.025 -22583335.593 10 0 56307 29700.00000 0 7959119.118 -10580226.844 -21801255.877 10 0 56307 30600.00000 0 10571344.704 -10703928.238 -20595710.685 10 0 56307 31500.00000 0 12996043.453 -10996500.472 -18990033.946 10 0 56307 32400.00000 0 15176388.413 -11425081.417 -17015344.134 10 0 56307 33300.00000 0 17064147.783 -11947841.082 -14709946.479 10 0 56307 34200.00000 0 18621477.027 -12515863.491 -12118593.946 10 0 56307 35100.00000 0 19822286.650 -13075344.682 -9291620.727 10 0 56307 36000.00000 0 20653128.559 -13570013.908 -6283964.657 10 0 56307 36900.00000 0 21113564.098 -13943675.399 -3154097.525 10 0 56307 37800.00000 0 21215998.613 -14142762.593 37115.717 10 0 56307 38700.00000 0 20984989.999 -14118795.913 3227606.233 10 0 56307 39600.00000 0 20456060.922 -13830639.080 6355315.113 10 0 56307 40500.00000 0 19674065.600 -13246457.390 9359407.301 10 0 56307 41400.00000 0 18691180.877 -12345293.949 12181461.197 10 0 56307 42300.00000 0 17564607.260 -11118196.204 14766609.901 10 0 56307 43200.00000 0 16354077.788 -9568844.155 17064611.374 10 0 56307 44100.00000 0 15119280.470 -7713652.848 19030826.383 10 0 56307 45000.00000 0 13917303.467 -5581344.053 20627085.068 10 0 56307 45900.00000 0 12800210.813 -3212004.341 21822425.573 10 0 56307 46800.00000 0 11812850.618 -655668.350 22593690.826 10 0 56307 47700.00000 0 10990987.544 2029514.137 22925972.440 10 0 56307 48600.00000 0 10359837.394 4779451.448 22812893.838 10 0 56307 49500.00000 0 9933064.509 7526533.798 22256727.730 10 0 56307 50400.00000 0 9712283.153 10202207.333 21268346.234 10 0 56307 51300.00000 0 9687082.800 12739592.225 19867005.024 10 0 56307 52200.00000 0 9835575.338 15076036.885 18079965.920 10 0 56307 53100.00000 0 10125440.339 17155502.892 15941965.327 10 0 56307 54000.00000 0 10515423.730 18930682.482 13494538.766 10 0 56307 54900.00000 0 10957226.231 20364761.434 10785214.414 10 0 56307 55800.00000 0 11397701.629 21432754.824 7866591.139 10 0 56307 56700.00000 0 11781271.892 22122361.001 4795318.724 10 0 56307 57600.00000 0 12052457.061 22434299.063 1630999.876 10 0 56307 58500.00000 0 12158412.935 22382116.640 -1564964.664 10 0 56307 59400.00000 0 12051369.228 21991476.957 -4730565.581 10 0 56307 60300.00000 0 11690864.995 21298955.792 -7804385.946 10 0 56307 61200.00000 0 11045686.606 20350399.457 -10726790.308 10 0 56307 62100.00000 0 10095426.020 19198913.206 -13441078.919 10 0 56307 63000.00000 0 8831592.975 17902564.762 -15894584.867 10 0 56307 63900.00000 0 7258233.401 16521899.530 -18039692.964 10 0 56307 64800.00000 0 5392026.934 15117371.663 -19834760.995 10 0 56307 65700.00000 0 3261858.104 13746798.523 -21244925.816 10 0 56307 66600.00000 0 907877.670 12462944.947 -22242779.022 10 0 56307 67500.00000 0 -1619908.292 11311338.174 -22808899.440 10 0 56307 68400.00000 0 -4263464.358 10328404.537 -22932232.327 10 0 56307 69300.00000 0 -6958892.306 9540005.665 -22610307.941 10 0 56307 70200.00000 0 -9638849.566 8960435.193 -21849295.095 10 0 56307 71100.00000 0 -12235120.369 8591917.864 -20663888.232 10 0 56307 72000.00000 0 -14681233.633 8424631.947 -19077029.619 10 0 56307 72900.00000 0 -16915019.529 8437254.019 -17119471.318 10 0 56307 73800.00000 0 -18880998.832 8598003.234 -14829184.596 10 0 56307 74700.00000 0 -20532505.664 8866141.146 -12250627.522 10 0 56307 75600.00000 0 -21833455.173 9193863.751 -9433884.325 10 0 56307 76500.00000 0 -22759682.210 9528505.702 -6433692.813 10 0 56307 77400.00000 0 -23299794.871 9814963.092 -3308378.709 10 0 56307 78300.00000 0 -23455507.149 9998231.711 -118717.779 10 0 56307 79200.00000 0 -23241436.868 10025952.481 3073251.640 10 0 56307 80100.00000 0 -22684377.724 9850855.280 6205441.852 10 0 56307 81000.00000 0 -21822076.607 9432996.548 9216930.311 10 0 56307 81900.00000 0 -20701568.377 8741694.776 12049150.972 10 0 56307 82800.00000 0 -19377139.026 7757080.870 14647038.438 10 0 56307 83700.00000 0 -17908003.819 6471196.778 16960102.060 10 0 56307 84600.00000 0 -16355798.878 4888595.006 18943408.818 10 0 56307 85500.00000 0 -14781992.286 3026412.904 20558455.681 10 0 56308 0.00000 0 -13245323.850 913917.803 21773914.782 10 0 56308 900.00000 0 -11799381.107 -1408459.064 22566237.441 10 0 56308 1800.00000 0 -10490412.543 -3890559.093 22920105.626 10 0 56308 2700.00000 0 -9355470.085 -6474345.371 22828723.113 10 0 56308 3600.00000 0 -8420956.487 -9096086.689 22293941.138 10 0 56308 4500.00000 0 -7701638.460 -11688786.731 21326216.670 10 0 56308 5400.00000 0 -7200165.141 -14184757.893 19944404.612 10 0 56308 6300.00000 0 -6907110.984 -16518233.472 18175388.120 10 0 56308 7200.00000 0 -6801540.058 -18627910.226 16053554.355 10 0 56308 8100.00000 0 -6852066.925 -20459316.301 13620125.746 10 0 56308 9000.00000 0 -7018368.539 -21966906.743 10922359.546 10 0 56308 9900.00000 0 -7253082.779 -23115799.931 8012631.095 10 0 56308 10800.00000 0 -7504012.951 -23883083.328 4947418.321 10 0 56308 11700.00000 0 -7716544.838 -24258634.718 1786207.038 10 0 56308 12600.00000 0 -7836173.888 -24245425.294 -1409661.737 10 0 56308 13500.00000 0 -7811035.500 -23859292.569 -4578180.139 10 0 56308 14400.00000 0 -7594331.208 -23128193.230 -7657874.450 10 0 56308 15300.00000 0 -7146547.966 -22090967.713 -10588995.320 10 0 56308 16200.00000 0 -6437376.363 -20795668.697 -13314674.230 10 0 56308 17100.00000 0 -5447246.276 -19297523.782 -15782023.891 10 0 56308 18000.00000 0 -4168414.472 -17656617.834 -17943161.364 10 0 56308 18900.00000 0 -2605557.415 -15935391.986 -19756134.430 10 0 56308 19800.00000 0 -775843.124 -14196063.727 -21185733.619 10 0 56308 20700.00000 0 1291522.310 -12498075.705 -22204174.484 10 0 56308 21600.00000 0 3556256.188 -10895679.414 -22791637.284 10 0 56308 22500.00000 0 5968430.172 -9435754.257 -22936653.818 10 0 56308 23400.00000 0 8470312.709 -8155952.613 -22636333.943 10 0 56308 24300.00000 0 10998547.760 -7083247.964 -21896427.224 10 0 56308 25200.00000 0 13486580.582 -6232946.306 -20731218.117 10 0 56308 26100.00000 0 15867230.681 -5608201.920 -19163256.128 10 0 56308 27000.00000 0 18075305.736 -5200057.462 -17222925.430 10 0 56308 27900.00000 0 20050148.189 -4988006.408 -14947861.476 10 0 56308 28800.00000 0 21738008.474 -4941053.996 -12382225.189 10 0 56308 29700.00000 0 23094145.864 -5019231.674 -9575848.209 10 0 56308 30600.00000 0 24084568.903 -5175500.776 -6583265.335 10 0 56308 31500.00000 0 24687342.254 -5357964.521 -3462652.938 10 0 56308 32400.00000 0 24893404.900 -5512294.077 -274694.133 10 0 56308 33300.00000 0 24706865.216 -5584265.138 2918606.802 10 0 56308 34200.00000 0 24144760.444 -5522296.571 6055136.877 10 0 56308 35100.00000 0 23236290.935 -5279882.498 9073889.377 10 0 56308 36000.00000 0 22021561.740 -4817813.586 11916156.852 10 0 56308 36900.00000 0 20549885.049 -4106092.413 14526678.069 10 0 56308 37800.00000 0 18877715.534 -3125460.762 16854716.024 10 0 56308 38700.00000 0 17066305.996 -1868473.315 18855045.715 10 0 56308 39600.00000 0 15179182.363 -340071.556 20488832.309 10 0 56308 40500.00000 0 13279544.302 1442367.110 21724382.881 10 0 56308 41400.00000 0 11427700.482 3449507.908 22537757.555 10 0 56308 42300.00000 0 9678645.705 5641045.478 22913228.728 10 0 56308 43200.00000 0 8079880.689 7967158.336 22843580.150 10 0 56308 44100.00000 0 6669564.827 10370370.923 22330240.747 10 0 56308 45000.00000 0 5475078.046 12787746.161 21383251.089 10 0 56308 45900.00000 0 4512050.573 15153317.810 20021063.649 10 0 56308 46800.00000 0 3783899.743 17400661.991 18270180.916 10 0 56308 47700.00000 0 3281891.823 19465501.351 16164638.492 10 0 56308 48600.00000 0 2985724.806 21288234.052 13745343.150 10 0 56308 49500.00000 0 2864606.421 22816282.794 11059278.477 10 0 56308 50400.00000 0 2878780.925 24006166.427 8158593.390 10 0 56308 51300.00000 0 2981439.444 24825208.219 5099590.986 10 0 56308 52200.00000 0 3120932.563 25252809.940 1941637.173 10 0 56308 53100.00000 0 3243191.248 25281238.880 -1253989.732 10 0 56308 54000.00000 0 3294253.373 24915895.324 -4425286.192 10 0 56308 54900.00000 0 3222788.723 24175049.643 -7510724.382 10 0 56308 55800.00000 0 2982515.475 23089060.291 -10450443.500 10 0 56308 56700.00000 0 2534405.656 21699105.686 -13187408.404 10 0 56308 57600.00000 0 1848586.024 20055483.132 -15668513.235 10 0 56308 58500.00000 0 905853.584 18215545.997 -17845608.782 10 0 56308 59400.00000 0 -301258.891 16241365.217 -19676433.978 10 0 56308 60300.00000 0 -1767913.215 14197212.563 -21125433.872 10 0 56308 61200.00000 0 -3476917.130 12146970.372 -22164448.535 10 0 56308 62100.00000 0 -5399200.160 10151575.316 -22773259.925 10 0 56308 63000.00000 0 -7494795.656 8266602.201 -22939986.347 10 0 56308 63900.00000 0 -9714289.620 6540087.985 -22661316.869 10 0 56308 64800.00000 0 -12000677.483 5010686.122 -21942581.053 10 0 56308 65700.00000 0 -14291552.924 3706227.602 -20797652.222 10 0 56308 66600.00000 0 -16521538.712 2642748.289 -19248685.562 10 0 56308 67500.00000 0 -18624859.250 1824022.688 -17325695.447 10 0 56308 68400.00000 0 -20537948.187 1241623.169 -15065979.296 10 0 56308 69300.00000 0 -22201982.510 875501.760 -12513398.459 10 0 56308 70200.00000 0 -23565237.234 695069.516 -9717529.426 10 0 56308 71100.00000 0 -24585161.932 660727.486 -6732701.381 10 0 56308 72000.00000 0 -25230091.586 725784.033 -3616938.750 10 0 56308 72900.00000 0 -25480519.572 838676.720 -430829.428 10 0 56308 73800.00000 0 -25329878.800 945403.865 2763658.863 10 0 56308 74700.00000 0 -24784797.826 992061.752 5904390.293 10 0 56308 75600.00000 0 -23864821.038 927378.946 8930276.348 10 0 56308 76500.00000 0 -22601604.678 705139.129 11782470.468 10 0 56308 77400.00000 0 -21037622.778 286388.782 14405517.753 10 0 56308 78300.00000 0 -19224437.798 -358664.855 16748436.830 10 0 56308 79200.00000 0 -17220609.005 -1249146.727 18765712.467 10 0 56308 80100.00000 0 -15089326.823 -2392462.324 20418179.465 10 0 56308 81000.00000 0 -12895872.593 -3783746.549 21673780.911 10 0 56308 81900.00000 0 -10705010.141 -5405837.012 22508186.454 10 0 56308 82800.00000 0 -8578418.106 -7229773.461 22905259.180 10 0 56308 83700.00000 0 -6572269.770 -9215803.058 22857362.696 10 0 56308 84600.00000 0 -4735060.625 -11314850.030 22365503.123 10 0 56308 85500.00000 0 -3105773.317 -13470388.801 21439303.805 10 0 56309 0.00000 0 -1712455.172 -15620642.993 20096813.688 10 0 56309 900.00000 0 -571266.322 -17701019.216 18364153.101 10 0 56309 1800.00000 0 313963.746 -19646674.470 16275004.465 10 0 56309 2700.00000 0 951653.415 -21395110.560 13869957.001 10 0 56309 3600.00000 0 1361866.068 -22888688.066 11195718.543 10 0 56309 4500.00000 0 1575212.898 -24076954.835 8304209.344 10 0 56309 5400.00000 0 1631309.236 -24918692.320 5251555.316 10 0 56309 6300.00000 0 1576850.286 -25383594.444 2097000.038 10 0 56309 7200.00000 0 1463388.228 -25453508.902 -1098243.338 10 0 56309 8100.00000 0 1344905.183 -25123189.197 -4272178.070 10 0 56309 9000.00000 0 1275285.028 -24400525.961 -7363224.718 10 0 56309 9900.00000 0 1305791.279 -23306247.972 -10311413.488 10 0 56309 10800.00000 0 1482657.936 -21873105.354 -13059545.034 10 0 56309 11700.00000 0 1844895.423 -20144569.031 -15554297.283 10 0 56309 12600.00000 0 2422404.629 -18173100.647 -17747256.955 10 0 56309 13500.00000 0 3234479.133 -16018064.938 -19595856.133 10 0 56309 14400.00000 0 4288759.470 -13743371.249 -21064196.095 10 0 56309 15300.00000 0 5580684.338 -11414942.074 -22123742.777 10 0 56309 16200.00000 0 7093462.993 -9098113.483 -22753880.783 10 0 56309 17100.00000 0 8798571.406 -6855074.953 -22942315.440 10 0 56309 18000.00000 0 10656752.852 -4742454.530 -22685315.130 10 0 56309 18900.00000 0 12619482.699 -2809149.083 -21987789.110 10 0 56309 19800.00000 0 14630837.688 -1094489.279 -20863198.887 10 0 56309 20700.00000 0 16629692.908 373184.843 -19333304.310 10 0 56309 21600.00000 0 18552155.844 1577478.927 -17427748.576 10 0 56309 22500.00000 0 20334136.557 2514390.661 -15183489.353 10 0 56309 23400.00000 0 21913946.901 3192229.287 -12644086.347 10 0 56309 24300.00000 0 23234820.081 3631012.267 -9858858.472 10 0 56309 25200.00000 0 24247244.753 3861365.127 -6881926.546 10 0 56309 26100.00000 0 24911015.206 3922971.519 -3771160.019 10 0 56309 27000.00000 0 25196910.951 3862639.767 -587048.360 10 0 56309 27900.00000 0 25087934.393 3732068.584 2608480.562 10 0 56309 28800.00000 0 24580053.918 3585407.505 5753271.340 10 0 56309 29700.00000 0 23682420.612 3476716.475 8786156.794 10 0 56309 30600.00000 0 22417049.179 3457433.355 11648154.141 10 0 56309 31500.00000 0 20817976.352 3573957.676 14283617.413 10 0 56309 32400.00000 0 18929932.247 3865454.007 16641323.133 10 0 56309 33300.00000 0 16806580.562 4361968.748 18675467.743 10 0 56309 34200.00000 0 14508401.731 5082940.706 20346557.231 10 0 56309 35100.00000 0 12100307.809 6036168.961 21622171.874 10 0 56309 36000.00000 0 9649088.903 7217282.067 22477591.662 10 0 56309 36900.00000 0 7220797.666 8609731.386 22896270.795 10 0 56309 37800.00000 0 4878180.583 10185309.275 22870152.740 10 0 56309 38700.00000 0 2678262.360 11905170.861 22399820.389 10 0 56309 39600.00000 0 670183.194 13721317.007 21494478.969 10 0 56309 40500.00000 0 -1106622.274 15578476.889 20171772.490 10 0 56309 41400.00000 0 -2623829.849 17416311.956 18457437.498 10 0 56309 42300.00000 0 -3865157.455 19171849.537 16384801.004 10 0 56309 43200.00000 0 -4826786.360 20782044.837 13994132.219 10 0 56309 44100.00000 0 -5517255.989 22186364.574 11331860.504 10 0 56309 45000.00000 0 -5956838.248 23329284.467 8449674.553 10 0 56309 45900.00000 0 -6176419.101 24162596.294 5403520.077 10 0 56309 46800.00000 0 -6215935.651 24647428.083 2252515.256 10 0 56309 47700.00000 0 -6122435.577 24755892.812 -942194.989 10 0 56309 48600.00000 0 -5947841.597 24472296.557 -4118623.728 10 0 56309 49500.00000 0 -5746515.965 23793855.336 -7215142.765 10 0 56309 50400.00000 0 -5572728.287 22730890.452 -10171675.997 10 0 56309 51300.00000 0 -5478134.003 21306493.917 -12930862.298 10 0 56309 52200.00000 0 -5509370.298 19555677.605 -15439165.489 10 0 56309 53100.00000 0 -5705871.188 17524041.351 -17647910.015 10 0 56309 54000.00000 0 -6097994.304 15266015.076 -19514222.555 10 0 56309 54900.00000 0 -6705538.770 12842747.682 -21001861.730 10 0 56309 55800.00000 0 -7536717.174 10319730.044 -22081920.125 10 0 56309 56700.00000 0 -8587625.724 7764250.271 -22733385.438 10 0 56309 57600.00000 0 -9842235.880 5242786.273 -22943550.114 10 0 56309 58500.00000 0 -11272909.041 2818443.250 -22708261.567 10 0 56309 59400.00000 0 -12841414.052 548541.807 -22032008.058 10 0 56309 60300.00000 0 -14500406.352 -1517543.865 -20927838.162 10 0 56309 61200.00000 0 -16195308.090 -3340208.427 -19417114.841 10 0 56309 62100.00000 0 -17866511.662 -4891023.265 -17529108.169 10 0 56309 63000.00000 0 -19451815.298 -6153671.717 -15300433.772 10 0 56309 63900.00000 0 -20888989.135 -7124373.095 -12774347.155 10 0 56309 64800.00000 0 -22118364.384 -7811778.432 -9999906.926 10 0 56309 65700.00000 0 -23085336.763 -8236342.970 -7031022.708 10 0 56309 66600.00000 0 -23742678.503 -8429202.494 -3925406.122 10 0 56309 67500.00000 0 -24052561.037 -8430601.734 -743445.370 10 0 56309 68400.00000 0 -23988202.417 -8287942.120 2452974.326 10 0 56309 69300.00000 0 -23535069.232 -8053532.436 5601680.707 10 0 56309 70200.00000 0 -22691581.652 -7782138.669 8641430.553 10 0 56309 71100.00000 0 -21469291.245 -7528437.931 11513107.366 10 0 56309 72000.00000 0 -19892523.641 -7344485.296 14160876.446 10 0 56309 72900.00000 0 -17997500.791 -7277301.826 16533274.304 10 0 56309 73800.00000 0 -15830979.502 -7366686.654 18584210.857 10 0 56309 74700.00000 0 -13448463.411 -7643346.291 20273864.706 10 0 56309 75600.00000 0 -10912063.165 -8127420.670 21569454.348 10 0 56309 76500.00000 0 -8288094.230 -8827468.444 22445870.698 10 0 56309 77400.00000 0 -5644512.420 -9739954.545 22886159.222 10 0 56309 78300.00000 0 -3048293.664 -10849261.745 22881842.989 10 0 56309 79200.00000 0 -562866.457 -12128225.955 22433081.022 10 0 56309 80100.00000 0 1754296.934 -13539172.960 21548659.469 10 0 56309 81000.00000 0 3853831.423 -15035413.394 20245816.179 10 0 56309 81900.00000 0 5696284.036 -16563133.600 18549902.330 10 0 56309 82800.00000 0 7253499.055 -18063603.424 16493887.811 10 0 56309 83700.00000 0 8509527.244 -19475608.798 14117719.831 10 0 56309 84600.00000 0 9461022.829 -20738007.470 11467547.076 10 0 56309 85500.00000 0 10117113.180 -21792300.967 8594824.285 99